GEFSNGP_500_meanwind_000.txt.gz
Wind_Speed
23 21 20 18 17 19 19 24 32 34 33 33 31 35 35 34 34 28 24 27 25 23 23 25 29 30 29 29 27 23 22 21 20 21 20 21 22 23 24 23 23 23 24 25
22 22 21 18 20 20 18 15 21 27 29 31 32 33 35 35 35 30 27 30 29 29 30 27 23 23 24 24 20 21 21 23 24 21 19 18 18 19 21 23 23 24 24 24
20 21 20 17 18 17 17 15 13 18 23 25 28 27 25 25 30 34 35 34 34 31 28 23 19 18 18 17 22 23 20 23 23 21 22 22 21 22 22 23 24 25 25 24
15 20 15 16 16 10 8 7 8 12 15 18 19 17 17 19 21 24 26 27 26 24 21 19 18 18 18 18 22 20 16 21 22 23 25 27 27 25 24 24 25 26 25 25
9 11 12 14 14 10 7 5 3 4 8 9 4 7 9 11 12 14 15 14 11 11 11 13 17 19 19 17 17 18 19 22 25 27 28 27 26 25 25 25 25 24 24 24
11 13 13 14 15 14 9 11 7 8 1 4 3 6 6 6 6 6 4 4 4 7 10 14 17 17 16 17 18 19 22 25 26 26 26 24 23 23 24 24 25 25 24 26
13 16 19 12 16 17 16 17 13 10 6 4 4 6 7 7 6 5 5 6 7 10 12 15 15 15 16 17 18 20 22 23 24 24 23 21 21 21 22 22 24 25 26 27
15 16 18 16 17 22 23 21 19 14 9 7 6 6 5 6 6 7 8 10 11 12 12 12 12 14 14 16 18 19 21 21 21 21 20 19 19 20 21 23 25 26 27 28
16 19 19 17 21 25 24 24 21 14 11 9 6 3 2 3 4 7 9 12 14 12 10 11 11 11 14 16 17 18 19 19 17 16 16 16 16 18 21 24 27 28 30 31
16 22 22 17 24 27 26 22 19 13 11 10 6 2 2 1 4 7 11 12 11 10 9 9 10 13 14 16 17 16 16 15 13 12 13 14 15 18 21 24 27 29 29 30
14 23 22 17 29 30 24 24 22 15 12 10 5 2 1 2 5 9 12 11 10 9 8 9 11 13 14 15 15 15 14 13 12 12 12 13 14 17 21 23 24 19 13 13
9 19 22 16 21 30 29 29 23 15 12 9 4 2 1 4 6 9 12 13 12 10 9 8 10 11 12 13 14 14 12 12 11 11 11 11 11 14 17 18 18 11 5 5
5 15 21 15 8 18 22 23 17 13 12 7 3 1 1 4 6 8 11 13 12 10 9 9 9 10 11 13 14 14 13 11 9 8 8 10 12 13 17 16 14 10 9 8
3 15 19 15 7 16 24 21 16 15 10 6 3 2 2 5 6 9 11 11 10 10 9 9 9 9 11 14 15 14 13 11 9 8 7 9 11 13 15 16 15 11 9 10
3 14 19 15 7 12 25 21 18 15 11 7 5 4 3 4 6 8 10 11 10 10 9 8 10 10 11 13 13 13 12 10 8 7 7 7 9 11 12 13 12 11 8 6
4 14 20 15 9 9 22 27 19 15 12 9 7 6 4 3 5 8 9 10 10 11 10 9 10 11 12 12 12 11 10 9 9 8 8 7 7 8 11 12 12 12 11 9
6 12 19 16 13 10 14 22 22 17 13 10 9 7 4 2 5 6 7 9 11 11 9 10 10 12 13 13 12 11 10 9 8 9 9 9 8 8 9 11 12 13 13 12
12 13 18 20 17 15 15 19 23 20 16 13 11 9 4 2 3 4 5 7 10 10 9 9 10 11 13 14 13 12 11 10 10 12 13 13 12 11 11 11 13 14 14 14
14 13 17 21 19 17 17 20 25 20 17 16 13 11 6 3 2 3 4 6 8 9 8 8 9 10 13 14 14 12 11 11 12 13 14 16 16 16 15 15 15 16 16 15
15 14 16 19 22 20 20 21 23 23 20 19 16 13 9 5 2 3 2 4 6 8 7 7 8 10 11 12 12 11 11 11 12 12 13 13 14 14 14 14 13 13 13 14
17 13 15 18 20 23 23 23 25 26 26 24 20 16 12 8 5 5 3 2 4 6 6 6 7 8 9 9 10 10 11 12 13 13 13 14 14 14 13 13 13 13 14 16
19 15 14 19 20 20 22 24 26 26 27 29 24 19 16 12 9 8 5 2 1 3 4 5 6 6 6 7 8 9 11 12 14 14 14 15 15 15 15 15 15 15 15 16
20 17 16 18 22 21 21 23 26 27 30 32 27 23 21 16 13 12 9 5 2 1 2 3 4 4 4 5 7 9 11 13 14 15 15 15 16 16 16 16 16 16 16 17
24 21 18 19 24 26 22 22 26 29 32 32 27 24 23 19 16 15 12 8 5 3 1 1 3 4 5 6 8 10 11 13 14 14 14 15 15 16 16 17 17 17 16 16
26 27 24 19 23 28 26 22 25 31 35 32 27 25 23 21 19 19 17 12 8 5 3 3 3 5 7 8 9 10 12 13 14 14 15 16 17 17 18 18 18 17 16 15
28 29 29 25 23 29 30 25 24 31 36 33 28 26 25 24 22 22 20 16 12 8 5 5 5 6 8 9 9 10 10 10 12 12 12 12 13 14 15 16 16 17 17 16
29 31 31 30 25 27 31 29 25 32 38 37 31 28 27 27 25 24 22 20 16 12 8 8 8 8 9 10 10 9 8 7 8 7 7 7 8 9 10 10 11 12 14 15

GEFSNGP_500_meanwind_006.txt.gz
Wind_Speed
18 18 15 12 11 12 14 16 19 20 23 26 28 30 30 27 22 19 21 21 21 20 19 20 22 22 24 27 29 29 26 26 26 23 19 17 18 19 19 18 18 19 20 21
12 13 11 14 14 12 13 13 13 12 12 14 17 20 22 24 24 24 25 25 25 24 23 23 23 23 25 26 26 25 23 23 24 23 21 20 21 21 22 21 20 21 21 22
6 6 10 12 11 10 10 9 6 4 4 4 7 11 15 18 21 23 24 24 22 23 23 23 23 23 23 22 21 21 21 21 21 22 22 22 23 23 23 23 24 24 24 25
3 5 6 7 6 7 7 4 2 2 2 2 3 5 6 9 11 14 15 15 15 16 17 18 18 17 16 16 17 18 19 20 20 20 21 22 22 22 23 24 24 24 24 25
4 8 3 7 8 9 9 5 2 1 2 2 6 10 8 6 5 5 4 5 6 7 8 10 10 11 13 15 17 19 20 21 21 21 21 22 23 23 24 24 24 23 24 24
5 9 6 4 6 7 8 7 4 4 6 6 6 7 7 7 7 6 5 3 1 2 4 7 9 12 15 17 19 20 22 22 22 22 23 23 23 22 21 20 20 20 21 21
5 8 6 3 3 5 7 8 7 4 5 7 6 6 5 5 6 6 5 3 3 5 7 10 13 15 16 17 18 20 21 22 22 22 22 21 19 18 17 16 17 18 19 21
5 6 5 4 2 3 5 7 6 3 5 7 8 8 6 4 3 3 3 4 6 8 11 13 13 14 15 16 18 20 21 21 21 20 20 18 17 16 15 15 17 19 21 24
3 4 3 3 2 1 4 5 4 2 5 8 9 8 6 4 4 4 4 6 8 10 11 12 13 13 15 17 18 20 20 20 20 19 19 17 17 16 15 16 19 22 25 28
6 4 2 0 1 2 3 5 4 1 5 8 8 8 6 5 4 5 6 8 9 10 10 11 12 13 15 16 17 18 20 21 20 18 17 15 14 14 14 16 19 22 24 26
9 5 3 3 4 3 3 3 1 2 5 7 7 7 6 5 6 7 9 10 11 11 10 11 12 13 15 16 18 19 21 22 21 18 15 13 12 12 14 17 19 20 22 22
10 5 3 4 4 2 2 2 1 2 4 5 6 6 7 6 7 9 11 11 11 10 10 11 13 14 16 18 20 21 22 22 20 17 14 12 11 13 14 16 17 18 19 19
12 5 3 4 4 2 2 3 3 3 2 2 3 5 6 7 8 10 11 11 9 10 11 12 13 15 17 19 20 21 21 19 16 14 11 10 10 11 13 14 15 15 16 15
17 7 4 4 5 5 6 6 7 7 6 4 2 4 6 7 8 10 10 9 10 11 12 12 13 15 17 19 20 20 18 15 12 11 9 8 8 10 12 13 14 14 13 13
25 12 6 6 8 9 8 8 7 7 7 6 3 3 5 7 8 9 9 9 11 13 12 13 14 15 17 19 18 17 15 13 12 11 9 8 7 9 12 13 14 13 12 13
32 21 10 7 9 9 8 7 6 6 8 8 6 3 4 6 8 9 8 9 12 13 13 13 14 15 17 18 17 16 15 14 13 12 10 8 8 10 12 14 14 14 14 14
34 29 19 9 7 9 8 6 5 6 10 11 9 5 4 5 7 8 8 9 12 13 13 13 14 15 16 17 16 15 15 15 14 13 12 11 11 13 14 15 16 16 16 15
34 32 26 17 8 8 9 8 7 8 11 14 12 8 6 5 7 8 8 8 10 12 12 12 13 14 16 17 17 16 14 14 14 14 14 14 14 15 16 17 18 17 17 17
31 32 30 23 15 8 10 10 9 9 10 13 13 10 8 6 7 8 7 7 9 10 11 11 12 13 15 17 17 16 14 13 13 14 14 13 14 15 16 17 18 18 19 19
28 30 30 27 22 13 8 10 11 10 11 13 14 12 10 9 9 8 7 6 7 9 10 10 10 11 13 15 15 14 13 12 12 12 12 12 12 13 14 15 17 17 19 20
24 27 29 28 25 20 13 10 12 13 12 14 15 15 13 12 11 10 8 6 6 7 8 9 9 9 11 12 12 11 11 11 11 11 10 10 11 12 13 14 15 15 17 18
20 23 26 28 27 24 19 14 13 14 14 16 17 17 15 14 13 12 10 8 7 5 6 7 8 8 8 9 9 8 8 9 10 10 10 10 11 11 12 13 13 14 15 16
18 19 22 26 27 26 23 19 14 14 16 18 20 20 19 18 17 15 13 11 9 7 5 5 6 6 6 7 7 6 6 7 9 9 10 10 11 11 11 11 11 12 12 12
19 19 19 22 25 27 26 24 19 15 18 20 22 22 22 22 21 19 16 15 13 10 7 5 5 5 4 4 4 3 3 6 8 9 9 10 11 11 11 11 10 9 10 10
20 20 20 21 22 26 27 26 23 19 16 21 23 24 24 24 24 22 20 18 16 13 10 7 6 5 4 3 3 2 1 3 5 5 6 7 8 9 10 11 11 10 10 10
22 22 22 22 22 23 26 28 26 23 19 19 24 25 26 27 27 26 24 22 20 17 13 10 8 6 6 5 4 4 3 2 1 0 3 5 7 7 8 9 10 10 9 9
25 24 23 24 23 23 25 27 28 26 23 19 22 26 27 29 30 29 28 26 24 21 18 14 11 9 8 8 8 8 7 6 5 5 6 8 9 9 8 7 7 8 8 9

GEFSNGP_500_meanwind_012.txt.gz
Wind_Speed
9 4 4 6 6 8 9 10 9 8 9 9 9 9 9 8 7 8 8 8 8 9 9 10 11 14 16 17 19 21 22 24 24 19 17 16 17 18 19 20 20 20 19 18
9 7 9 11 12 10 8 5 3 2 2 3 4 5 5 6 7 9 10 11 11 11 12 14 17 18 19 19 20 20 21 22 20 19 17 16 17 19 19 19 19 20 20 21
14 14 14 14 13 12 10 8 6 5 4 3 2 1 1 2 3 5 7 9 11 13 14 15 17 18 18 17 17 18 18 18 18 18 18 19 20 20 20 21 21 21 21 21
20 18 16 15 14 14 14 12 10 9 8 7 7 6 4 3 3 4 5 6 7 8 9 10 12 13 13 13 14 15 16 17 19 20 20 20 20 21 21 22 22 23 23 23
23 20 18 17 16 16 16 15 14 13 12 12 12 11 10 8 5 3 3 2 2 3 5 7 8 9 11 12 13 15 16 17 18 19 19 20 20 21 21 22 22 22 23 22
24 21 20 18 17 16 16 16 15 14 13 13 12 11 10 10 8 6 5 4 2 1 3 5 7 9 11 13 14 15 16 16 17 18 19 19 20 20 21 21 21 21 21 21
23 21 20 17 16 15 15 15 14 13 13 12 11 11 11 10 9 7 5 3 3 4 6 8 9 11 12 14 15 15 16 17 17 18 19 19 20 20 20 20 20 20 20 20
19 18 16 14 13 12 11 12 12 11 11 11 11 11 10 9 8 7 6 5 6 7 8 10 11 12 14 15 16 16 17 18 18 19 20 19 19 18 18 18 18 18 19 20
16 14 13 11 10 9 8 8 9 9 9 10 11 10 10 9 8 8 8 9 9 10 11 11 12 13 14 16 17 18 19 19 20 20 19 18 17 16 15 15 17 18 20 21
12 10 8 7 6 5 4 5 6 7 8 9 9 9 8 8 8 9 10 11 11 11 12 13 13 14 15 16 18 19 19 19 19 18 17 16 15 14 15 16 17 19 20 21
11 8 6 4 3 3 3 3 4 5 5 7 7 7 7 7 9 10 11 11 12 13 14 14 15 15 16 17 17 17 17 16 15 14 14 13 13 13 14 16 18 19 19 20
14 9 6 5 3 2 2 2 3 3 3 4 4 5 6 7 9 10 11 12 13 15 16 16 16 17 18 18 17 16 15 15 14 14 13 12 11 12 14 16 17 17 18 18
21 14 8 5 2 1 2 2 2 2 1 1 1 3 4 6 7 9 11 12 14 16 17 17 17 18 19 19 18 17 17 16 15 14 13 13 12 14 15 16 16 16 16 16
29 22 14 9 2 2 3 2 3 4 4 3 1 1 3 5 6 8 10 12 14 16 17 17 18 19 19 18 18 18 18 17 16 16 15 15 15 15 16 16 16 16 16 16
31 29 22 14 6 3 5 4 3 5 6 5 4 2 2 4 5 7 9 11 13 15 16 16 17 19 19 18 17 18 18 19 18 18 17 17 17 17 17 17 17 17 17 17
30 31 28 21 12 2 5 5 4 5 6 6 5 4 2 3 5 6 8 10 12 14 15 15 16 18 19 18 17 17 18 19 19 19 19 19 19 19 19 19 19 18 18 18
26 29 30 26 18 8 1 4 5 6 6 7 8 7 5 4 4 5 7 9 11 12 13 14 15 16 17 17 17 17 17 18 18 18 19 20 20 20 21 21 21 20 20 20
21 24 27 27 23 14 6 3 5 7 8 9 10 9 8 7 6 5 5 7 9 11 12 13 13 14 15 16 16 16 16 16 17 17 18 19 19 20 20 21 22 22 22 22
18 20 23 25 24 20 14 8 6 7 9 10 11 11 11 10 9 6 4 4 7 9 10 11 12 12 13 13 14 15 15 16 16 16 16 17 17 18 19 20 21 22 22 23
15 16 18 21 23 22 19 16 11 8 9 11 12 12 12 12 11 9 6 3 4 6 8 9 10 10 10 11 12 13 14 15 15 15 15 15 15 16 17 18 19 20 21 22
14 14 16 18 19 20 21 19 17 13 11 11 12 13 13 13 12 11 9 6 4 4 6 7 8 8 8 9 10 11 13 13 14 15 15 15 14 15 16 16 17 17 18 19
14 14 15 16 17 19 20 20 20 18 16 13 12 14 15 15 14 13 11 10 8 6 5 6 7 7 6 6 8 9 10 11 12 14 15 15 15 15 15 15 15 15 16 16
16 15 15 16 17 18 19 20 20 20 20 18 15 13 15 17 17 16 14 13 11 9 7 6 6 6 5 4 5 6 7 8 10 12 14 15 16 16 16 15 15 15 15 15
20 18 17 17 18 19 19 20 20 21 22 22 21 17 14 16 19 19 18 17 15 13 11 9 8 7 5 4 3 3 4 5 7 10 12 14 15 16 15 15 14 14 14 14
23 21 20 19 20 20 20 20 21 21 23 23 23 22 18 15 17 21 21 20 19 17 15 13 11 9 8 6 4 2 2 3 5 8 10 13 15 15 14 13 12 12 12 13
26 24 22 22 21 21 21 22 22 22 22 24 24 24 23 20 16 19 22 23 22 20 18 16 15 13 11 9 7 6 5 4 5 8 10 13 14 14 13 12 11 11 11 11
29 28 26 24 23 23 23 24 24 24 24 24 25 25 26 24 20 17 20 23 24 23 21 20 18 17 16 13 11 9 8 8 8 8 11 13 14 14 12 11 10 10 10 10

GEFSNGP_500_meanwind_018.txt.gz
Wind_Speed
26 25 23 22 19 16 14 13 10 8 8 7 6 5 5 5 5 6 6 6 6 4 4 4 4 3 3 6 8 11 13 15 16 18 18 17 17 16 15 17 18 19 20 20
26 25 24 22 20 17 14 13 12 11 10 9 8 6 6 6 6 5 5 5 4 2 1 2 3 4 6 8 11 13 14 15 16 17 16 16 16 17 17 18 19 19 20 20
25 23 23 22 20 17 15 14 14 13 13 12 10 9 8 7 5 5 4 3 1 1 2 4 5 7 8 10 11 12 13 14 15 15 16 17 18 18 19 20 20 20 21 21
24 22 22 22 20 18 16 16 16 15 15 14 12 10 10 9 9 8 7 6 4 3 3 4 6 7 8 8 10 11 12 13 15 17 18 19 19 20 20 21 21 22 22 22
22 21 20 20 19 17 16 15 15 15 15 14 14 13 13 12 12 11 10 9 7 6 6 6 6 7 8 9 10 12 13 15 17 18 19 20 20 20 21 21 22 22 22 22
20 19 17 17 17 16 15 14 13 13 13 13 14 14 13 13 13 12 11 10 9 8 7 7 7 8 9 10 12 13 15 16 18 19 20 21 21 22 22 22 22 21 21 21
18 16 15 14 14 14 13 13 12 12 12 13 13 13 12 12 12 11 10 10 9 9 9 9 9 10 10 12 13 14 16 17 19 20 20 21 22 22 22 21 21 20 19 19
18 15 14 13 11 12 11 10 11 11 11 11 11 11 11 11 11 11 11 10 10 11 11 11 12 12 13 14 15 16 17 18 19 20 20 20 20 20 19 19 19 18 18 18
20 16 14 12 10 9 8 7 8 9 9 9 9 9 9 10 11 11 12 12 13 13 13 14 15 16 17 17 17 17 17 18 18 18 18 17 17 17 16 16 16 16 17 17
23 18 15 12 9 8 7 5 5 6 6 6 6 7 8 9 10 12 13 14 14 14 15 15 16 17 18 18 18 17 17 17 17 16 16 16 15 15 14 14 15 15 15 16
28 23 17 13 9 7 5 4 3 4 4 5 6 6 7 9 10 11 13 14 14 15 15 16 16 17 17 17 17 17 17 17 16 16 16 15 14 14 14 14 14 14 14 13
30 27 22 16 10 6 5 4 3 4 4 5 5 6 7 8 9 11 12 13 14 15 15 16 16 16 16 16 17 17 18 18 17 17 16 16 16 15 15 15 15 15 13 13
30 28 25 19 12 7 4 3 3 4 4 5 6 6 7 8 9 10 11 12 14 14 14 15 15 15 15 16 17 17 18 18 18 18 18 18 18 18 17 16 17 16 16 15
29 28 26 22 15 9 6 4 4 5 5 6 6 5 6 7 7 8 10 11 12 13 13 14 14 14 14 15 16 17 18 19 19 20 20 20 20 20 20 19 19 19 18 17
25 27 26 24 19 12 9 7 6 6 7 7 6 4 4 5 6 7 8 10 11 11 12 13 13 14 14 14 15 16 17 18 19 19 20 21 22 21 21 22 22 22 22 21
21 23 25 23 20 16 12 10 8 8 9 9 7 5 4 4 4 5 7 8 9 10 11 12 12 13 13 13 14 15 16 17 18 18 19 21 22 22 22 23 23 24 24 25
16 19 21 22 21 19 16 14 12 10 10 10 7 5 4 3 3 3 5 6 7 9 10 10 11 11 12 12 13 14 15 16 17 17 18 20 21 22 22 23 24 24 25 25
14 15 16 19 20 20 18 17 15 13 11 9 8 5 4 3 2 2 2 3 5 6 8 9 10 10 11 11 12 14 15 15 16 16 17 18 19 20 21 22 23 23 23 24
14 13 13 15 17 18 19 18 17 16 14 12 9 6 3 3 3 2 2 2 3 5 6 8 9 9 10 10 11 12 13 14 15 16 16 17 17 18 20 21 21 21 22 22
16 14 13 12 13 15 17 18 17 17 16 15 12 9 5 3 4 3 3 3 3 3 5 7 8 8 9 9 10 11 12 13 14 16 16 16 17 17 18 18 19 20 19 19
18 17 15 14 13 13 15 16 16 16 16 16 14 11 7 5 4 5 5 5 4 4 4 6 7 7 7 7 8 8 9 11 13 14 16 16 16 16 16 16 17 17 17 17
20 19 18 17 15 14 14 15 15 16 16 16 15 14 11 7 6 7 7 7 6 6 6 6 6 6 6 6 6 6 6 8 10 12 14 15 15 15 14 15 15 15 15 14
22 22 21 20 18 17 15 15 15 16 16 16 16 15 14 12 9 6 9 9 9 9 8 8 7 7 6 5 4 4 4 5 7 9 12 14 14 14 13 13 13 13 13 13
25 24 24 23 22 20 18 17 16 16 16 16 16 16 14 13 11 10 8 9 11 11 11 10 10 9 7 6 5 5 5 4 5 7 10 12 13 13 13 12 12 12 12 12
28 27 26 26 25 25 23 21 19 18 17 17 17 17 16 15 13 12 11 9 9 12 13 13 12 11 10 8 8 7 6 6 6 6 8 10 11 12 12 12 11 11 11 12
32 30 28 28 28 28 27 25 24 22 20 19 19 18 18 17 16 15 13 12 11 10 12 13 14 14 13 12 10 10 9 8 8 8 8 9 10 11 11 11 11 11 11 11
36 34 32 31 31 31 31 30 28 26 24 22 22 21 20 20 19 18 16 15 13 11 11 12 14 16 16 15 14 13 12 11 10 9 9 9 9 10 10 10 10 11 11 11

GEFSNGP_500_meanwind_024.txt.gz
Wind_Speed
26 24 22 21 19 18 16 15 14 13 12 11 10 9 9 10 9 10 11 11 10 10 10 10 9 8 8 7 6 5 4 3 3 3 4 5 6 7 9 11 12 14 16 17
25 24 22 20 19 18 18 17 16 15 14 13 13 13 11 10 10 10 10 10 10 10 10 9 8 8 7 6 6 6 5 5 5 5 6 7 8 9 11 13 15 16 18 19
24 23 21 20 18 17 17 17 18 17 16 15 14 13 13 12 12 12 11 11 11 10 9 9 9 9 8 7 7 7 7 7 6 7 8 10 12 13 15 16 17 19 20 21
21 21 21 19 17 16 16 16 16 17 17 17 16 15 14 14 14 14 14 13 12 11 10 10 9 9 8 8 8 8 8 8 9 10 11 13 14 16 18 19 20 21 22 23
19 19 19 18 16 17 17 17 17 17 16 16 16 17 16 16 16 15 15 14 13 12 12 11 10 10 9 9 9 9 9 10 11 12 13 14 16 17 19 20 21 22 23 23
20 18 18 17 16 16 16 16 16 16 16 16 16 17 16 16 15 15 14 13 13 12 12 11 11 11 10 10 10 10 10 10 11 12 13 15 16 17 18 19 20 21 22 22
21 18 16 15 15 15 16 16 16 15 15 15 16 15 15 15 14 14 14 13 13 13 13 13 12 12 11 11 11 10 11 11 12 12 13 14 15 16 17 17 18 19 19 20
24 19 15 14 14 14 14 14 14 14 14 14 14 14 14 14 14 14 14 14 15 15 15 15 14 14 13 13 13 13 13 13 14 14 15 15 16 16 16 16 16 16 17 17
25 20 17 14 13 12 12 12 12 12 13 13 13 13 13 13 14 14 15 15 16 16 17 17 17 16 16 15 15 15 15 16 16 17 17 17 18 18 17 16 16 15 15 15
24 20 17 15 13 12 11 11 11 11 11 12 12 12 12 12 13 14 15 16 16 17 17 18 18 17 17 17 17 17 17 18 18 19 19 19 19 19 19 17 16 16 14 14
23 21 18 16 14 13 12 11 10 10 11 10 10 10 11 11 12 13 14 15 16 16 17 17 17 17 17 18 18 18 18 19 19 20 20 21 21 21 21 19 18 17 15 13
21 20 18 16 14 13 12 11 10 10 10 9 9 9 9 9 10 12 13 14 15 15 16 16 16 17 17 17 17 18 18 19 19 21 21 22 22 22 21 21 20 19 18 17
18 18 18 16 15 13 12 11 11 10 10 8 7 7 7 8 9 10 11 13 14 14 15 15 16 16 16 16 16 17 17 17 18 20 21 22 23 23 23 22 22 22 21 21
14 16 16 16 15 14 12 11 10 10 9 7 6 6 6 6 7 8 10 11 12 13 13 14 14 14 15 15 16 16 16 17 18 19 20 21 22 22 23 24 24 23 23 23
10 12 14 15 14 13 13 11 10 9 9 7 4 4 4 4 5 6 7 9 10 11 11 12 13 13 14 14 15 15 15 16 17 18 19 19 20 21 22 23 24 24 24 25
8 9 11 13 13 13 12 12 11 10 9 7 4 2 2 2 3 4 5 6 7 8 10 10 11 12 12 13 14 14 14 15 15 16 17 18 19 19 21 21 22 23 25 25
9 8 8 10 11 12 12 12 12 11 10 8 5 2 1 1 0 1 2 3 5 6 8 9 10 10 11 12 13 13 14 14 14 15 15 16 17 18 19 20 21 21 22 23
11 10 9 8 9 9 10 11 11 12 11 9 6 4 1 0 1 1 1 2 3 4 6 8 9 9 10 10 11 12 13 14 14 14 14 15 15 16 17 17 18 19 19 20
13 13 11 10 9 8 8 8 9 10 11 10 7 5 3 1 2 2 3 3 3 4 5 6 7 8 8 9 9 10 11 12 13 14 14 14 14 14 14 14 15 15 16 16
16 15 14 13 12 10 9 8 7 8 8 9 8 6 4 2 2 4 4 4 4 5 5 6 6 7 7 7 6 7 8 10 11 13 13 13 13 13 13 13 13 13 13 13
19 18 17 16 15 14 12 10 9 8 7 7 7 7 5 4 3 4 6 6 6 7 7 7 7 7 6 6 5 5 5 7 9 11 12 13 13 12 12 12 12 12 12 11
23 21 20 19 18 18 16 15 13 11 9 7 6 5 5 5 4 4 5 7 8 9 9 9 9 8 7 7 6 5 4 5 6 8 10 12 12 12 12 11 11 11 11 10
26 25 23 22 21 21 20 19 17 16 13 11 8 6 5 5 5 5 5 5 7 9 10 11 11 10 10 8 7 6 6 5 5 6 8 10 11 12 12 11 10 10 10 10
30 28 27 25 24 24 24 23 22 21 19 17 14 11 8 7 6 6 6 6 7 8 10 11 12 12 11 10 9 8 8 7 6 6 6 7 9 10 11 11 10 9 9 9
35 32 30 29 28 28 27 26 25 25 24 22 20 17 15 12 10 8 7 7 7 8 9 10 12 13 13 13 12 12 10 9 9 8 7 7 7 8 9 10 10 9 9 8
39 37 35 33 32 31 30 29 29 28 27 26 25 23 21 19 16 13 11 10 9 9 9 9 11 12 13 15 15 15 14 13 11 10 9 8 8 7 7 8 9 9 9 8
43 41 39 38 36 35 34 33 32 32 31 30 29 28 27 25 23 20 18 15 13 12 11 10 10 11 13 14 15 17 17 17 15 14 12 11 10 9 8 8 8 8 9 8

GEFSNGP_500_meanwind_030.txt.gz
Wind_Speed
19 19 18 18 19 20 21 21 19 17 17 18 17 16 17 16 15 16 16 14 14 12 12 10 10 11 10 10 9 9 8 7 7 6 5 4 3 2 3 5 6 8 10 11
19 20 19 18 19 20 20 21 21 20 19 19 20 20 21 21 21 20 19 18 18 17 16 15 14 13 12 11 11 10 9 9 8 7 6 5 5 5 6 7 9 11 12 13
20 19 19 20 19 19 19 20 21 20 20 20 21 22 22 22 22 22 22 21 20 19 17 16 15 14 13 12 11 10 9 9 8 7 6 7 7 8 9 11 12 13 15 16
19 19 20 19 18 17 18 18 19 19 20 19 19 19 20 21 21 21 20 20 19 18 17 16 15 14 13 12 12 11 11 10 10 10 10 10 10 10 11 13 14 15 17 18
20 18 18 17 16 16 16 17 17 18 18 17 17 18 20 21 20 20 20 19 19 18 17 17 16 16 15 14 14 13 13 12 12 12 12 12 12 12 13 14 16 17 19 20
21 19 18 17 16 15 15 16 16 17 17 17 17 19 20 20 20 20 20 19 19 18 18 18 17 17 16 16 16 16 16 15 15 15 14 14 14 14 14 14 15 16 18 19
21 20 18 17 16 16 15 16 15 15 16 16 17 17 18 19 19 19 19 19 19 19 19 19 18 18 18 18 18 18 18 18 18 17 17 17 17 17 17 16 16 15 16 16
20 19 18 17 16 16 16 15 14 14 14 14 15 16 16 17 17 18 18 18 18 19 19 19 19 19 19 19 19 20 20 20 20 20 20 20 20 20 19 18 17 15 14 13
20 19 18 17 16 15 15 15 14 13 12 12 13 14 15 15 16 16 17 17 17 18 18 19 19 20 20 20 20 20 21 22 22 22 22 22 21 22 21 20 18 17 16 14
19 18 17 17 17 16 15 15 14 12 11 11 12 12 13 14 14 15 15 16 16 17 17 18 18 18 19 19 20 20 21 22 22 23 23 23 22 23 24 22 21 20 18 17
17 17 17 17 17 16 15 15 14 13 11 10 10 11 11 12 12 13 14 14 15 16 16 16 17 17 18 19 19 20 20 21 22 22 23 24 24 24 25 25 23 23 22 21
14 15 16 16 16 16 16 15 14 13 11 10 9 9 9 10 11 11 12 13 14 14 15 15 16 17 17 18 19 19 20 21 21 22 23 24 24 25 26 26 26 26 26 25
11 13 14 15 15 15 15 15 14 13 12 10 8 8 8 8 9 10 10 11 12 13 14 15 16 16 17 17 18 19 20 20 20 21 22 23 24 25 26 27 28 28 28 28
9 10 11 13 13 14 15 15 14 13 12 10 7 6 6 6 7 7 8 9 10 11 13 14 15 16 17 17 17 17 18 19 19 20 21 22 22 23 25 25 27 28 28 29
9 10 10 11 12 12 13 14 14 13 12 11 9 6 5 4 4 5 6 7 8 9 11 12 14 15 15 16 16 16 17 17 18 18 20 20 20 21 22 23 24 26 27 27
11 10 10 10 10 11 11 12 13 13 12 11 10 7 5 4 4 4 5 5 6 8 9 11 12 13 14 15 15 16 16 17 17 17 18 18 19 19 20 20 21 22 23 24
13 12 12 11 11 10 10 11 11 12 12 11 10 8 7 5 5 5 5 5 6 6 8 9 10 11 12 13 13 14 15 16 17 17 17 17 17 17 18 18 18 18 19 20
15 15 14 14 13 12 11 11 10 10 11 11 10 9 8 7 6 6 6 6 6 6 7 7 8 9 10 11 11 12 13 14 15 16 16 17 17 17 17 17 16 16 16 16
17 17 16 16 15 14 14 13 12 11 10 10 10 10 9 8 8 8 8 8 8 8 8 7 7 7 8 9 9 10 11 12 13 15 15 16 16 16 16 16 15 15 14 14
21 20 19 18 18 17 16 15 14 13 12 11 11 10 10 9 9 9 9 9 10 10 9 9 8 8 7 7 8 8 9 10 11 13 14 15 15 15 15 15 15 14 13 13
25 24 23 22 21 20 19 18 17 17 16 15 13 12 12 11 11 10 10 10 11 11 11 11 10 10 9 8 7 7 8 8 9 10 12 13 14 14 14 14 14 13 13 12
30 28 27 26 24 24 23 22 21 20 19 18 17 16 15 14 13 12 12 12 12 12 12 12 12 12 11 10 9 8 8 8 8 8 9 10 12 13 13 13 13 12 12 11
35 33 32 30 29 28 27 25 25 24 23 22 21 20 19 18 16 15 15 14 14 14 13 13 13 13 13 13 12 11 10 9 9 8 8 9 10 11 11 12 12 11 11 10
40 39 37 36 34 32 31 30 29 28 26 26 25 24 24 22 21 19 18 17 16 15 14 14 14 14 14 14 14 13 12 12 11 10 9 9 9 9 9 10 10 10 9 9
46 44 42 41 39 38 36 35 34 32 31 30 29 28 27 26 26 25 23 21 20 18 17 16 16 15 15 15 15 15 15 15 14 13 12 11 11 10 9 9 9 9 9 8
51 49 47 46 44 43 41 40 38 37 35 34 33 32 31 30 30 29 28 27 25 23 22 20 19 18 17 17 16 16 16 16 17 17 16 15 14 13 12 11 10 9 9 8
55 53 52 50 49 47 46 44 43 41 40 39 38 37 35 34 33 33 32 31 30 29 27 25 23 22 20 19 19 18 17 18 18 18 18 18 18 17 15 14 13 12 11 10

GEFSNGP_500_meanwind_036.txt.gz
Wind_Speed
19 20 20 20 20 20 20 19 18 18 19 19 19 19 19 19 19 19 19 18 18 18 16 14 13 12 11 11 10 9 8 7 7 6 5 4 4 4 3 3 4 6 7 8
20 20 20 20 21 21 20 20 19 19 19 19 19 19 19 20 20 20 20 20 19 19 18 18 17 16 15 15 13 13 12 11 10 8 7 7 6 6 7 7 8 8 9 10
20 20 20 21 21 21 21 20 19 19 18 18 19 19 19 20 21 21 20 20 20 20 19 18 18 17 16 16 15 14 13 12 11 10 9 9 9 9 9 9 10 11 13 14
21 21 22 22 22 21 21 20 19 18 18 19 19 19 19 20 20 21 21 21 21 20 20 20 20 19 18 18 17 17 16 15 14 12 12 11 11 11 12 12 12 13 15 16
21 21 22 22 21 21 20 19 18 18 18 18 18 19 20 20 20 21 21 21 20 20 20 20 20 20 20 20 19 19 18 17 16 16 15 14 14 14 14 14 13 14 15 15
20 20 21 21 21 20 19 19 18 17 17 17 18 19 19 20 20 21 21 21 21 21 21 21 21 21 21 21 20 19 19 18 18 18 17 17 16 16 15 15 15 14 14 15
19 19 20 21 21 21 19 18 17 16 16 16 17 18 18 19 20 20 20 21 21 21 21 20 20 21 21 21 20 20 20 19 19 19 19 19 18 17 17 17 16 15 15 15
18 18 19 19 20 21 20 18 16 15 15 16 16 17 18 18 18 19 19 19 20 20 19 19 19 20 20 20 20 20 20 20 20 20 20 21 21 20 20 20 19 17 16 15
16 17 18 19 18 19 20 18 16 15 15 15 15 16 16 17 17 17 17 18 18 18 18 18 18 18 19 19 19 20 20 21 21 21 22 23 23 23 23 23 22 21 20 17
13 15 16 17 17 18 18 19 17 15 14 14 14 14 15 15 15 16 16 16 16 16 17 17 17 17 18 18 19 20 20 20 20 21 22 23 24 24 25 25 25 25 24 21
10 12 13 15 16 16 17 17 18 16 13 13 13 13 13 13 13 14 14 14 15 15 16 16 16 16 17 17 17 18 19 19 19 20 21 23 24 25 26 27 27 27 27 26
8 9 10 12 14 14 15 15 16 16 14 11 11 11 11 11 11 12 12 13 13 14 15 15 15 16 16 16 17 17 18 18 19 20 21 22 23 24 26 27 28 28 29 28
8 8 8 9 10 12 13 13 14 14 13 11 9 9 9 9 9 10 10 11 12 13 14 14 15 15 15 15 16 16 17 17 18 19 20 20 21 22 24 26 27 27 28 29
8 8 7 7 8 9 10 11 11 12 12 11 9 8 7 7 8 8 8 9 11 12 12 13 14 14 14 14 15 16 16 17 17 18 19 19 20 21 22 23 25 26 26 27
10 9 8 7 7 7 8 8 9 9 9 10 9 8 7 7 7 7 7 8 9 10 11 11 12 12 12 13 13 14 15 16 17 17 18 19 19 20 20 21 22 23 24 25
11 10 9 9 8 8 8 7 7 7 8 8 8 9 8 7 7 7 7 7 8 9 9 10 10 10 11 11 12 13 14 15 16 17 17 17 18 19 19 19 20 20 21 22
13 12 11 10 10 10 9 9 8 7 7 7 7 8 8 8 8 8 8 8 8 9 9 9 9 9 9 10 10 11 12 13 14 15 16 16 17 17 17 17 18 18 18 19
16 15 14 13 12 11 11 11 10 9 9 8 8 8 8 8 8 8 8 8 9 9 9 9 9 9 9 8 9 9 10 11 12 13 14 15 15 15 16 16 16 16 16 16
19 18 17 16 15 14 13 13 12 12 11 11 10 10 9 9 9 9 9 9 9 9 9 9 9 9 9 8 8 8 9 9 10 11 12 13 14 14 14 15 15 15 14 14
23 22 20 19 18 17 16 15 15 14 14 14 13 13 12 11 11 10 10 10 9 9 9 10 10 10 10 9 9 8 8 8 8 9 9 10 11 12 13 13 13 13 13 12
28 27 25 23 22 21 20 19 18 18 17 17 17 16 15 15 14 13 13 12 11 10 10 10 10 10 10 10 9 9 9 8 8 8 8 9 9 10 11 11 11 11 11 10
33 31 30 29 27 26 25 23 23 22 21 21 20 20 19 19 18 17 16 16 14 14 13 12 11 10 10 10 10 9 9 9 9 9 8 8 8 9 9 9 9 9 9 8
39 37 36 34 33 32 30 29 28 27 26 25 24 23 23 23 22 21 21 20 19 18 17 15 14 13 12 11 11 11 10 10 10 10 10 9 9 9 9 8 8 8 7 7
44 43 42 41 39 37 35 34 33 32 31 30 29 28 27 27 26 26 25 24 23 22 21 20 19 17 16 15 13 12 12 12 12 11 11 11 11 11 10 10 9 8 8 7
49 49 48 47 45 43 42 40 39 37 36 35 34 33 32 31 30 30 29 29 28 27 25 24 23 22 21 19 17 16 15 14 13 13 13 13 13 13 14 13 12 11 10 10
54 54 54 53 52 50 48 46 44 43 41 40 39 38 37 36 35 34 33 32 32 31 30 29 28 26 25 24 23 21 20 18 17 16 15 15 15 15 15 16 16 15 14 13
57 57 58 57 57 55 53 52 50 48 47 45 44 43 43 41 40 39 38 37 36 35 35 34 32 31 30 29 28 26 25 23 22 20 19 18 17 17 17 17 17 18 18 17

GEFSNGP_500_meanwind_042.txt.gz
Wind_Speed
19 20 19 18 18 17 17 17 17 17 18 18 19 20 20 22 22 23 22 22 22 22 21 21 20 19 19 18 17 15 14 13 11 10 9 8 7 7 7 7 7 8 9 10
20 20 19 18 18 17 17 17 17 17 18 18 19 20 20 22 22 23 22 22 22 22 22 21 21 20 20 20 19 18 17 16 15 13 12 11 10 10 9 8 8 9 9 9
19 19 19 18 18 17 17 17 17 18 18 18 18 19 19 20 21 22 22 23 23 23 23 22 22 22 21 21 20 20 19 18 18 17 15 14 13 13 12 11 11 10 10 10
19 19 19 18 17 17 16 16 16 17 17 17 17 18 18 19 19 20 20 21 22 23 22 22 22 22 22 21 21 21 20 20 19 18 18 17 16 15 14 13 13 12 11 11
18 18 18 18 17 16 16 15 16 16 16 16 17 17 17 18 18 19 19 20 20 21 21 22 22 22 22 22 22 22 21 21 20 20 20 20 19 19 17 16 15 14 13 12
16 17 17 17 17 15 15 14 15 15 16 16 16 16 16 17 17 18 18 19 19 19 20 21 21 21 21 21 21 22 22 22 21 21 21 22 22 21 20 20 18 17 15 13
15 16 16 16 16 15 14 13 13 14 14 14 15 15 16 16 16 16 17 17 18 18 18 19 19 20 20 20 21 21 21 22 22 23 23 23 23 23 23 22 21 19 17 15
12 13 14 15 15 15 13 12 11 12 12 13 13 13 13 14 14 15 15 16 17 17 17 17 18 18 19 20 20 20 21 21 22 23 24 24 24 25 25 24 23 22 20 18
10 11 12 13 13 13 13 12 11 10 10 10 11 11 11 12 13 14 15 15 16 16 16 16 17 17 18 19 19 19 20 21 22 23 24 24 25 26 26 26 25 24 23 21
7 8 10 10 11 11 10 11 10 9 8 9 9 9 10 11 12 13 14 15 15 16 16 16 16 16 17 18 18 19 19 21 22 22 23 24 25 26 26 27 26 26 25 23
7 7 7 8 9 9 8 8 9 8 7 7 7 7 8 9 10 12 13 14 14 15 15 15 15 15 16 17 18 18 19 20 21 22 23 23 24 25 26 27 27 26 26 25
8 7 7 6 6 7 7 6 6 7 7 6 7 6 6 7 8 10 11 12 13 13 14 14 15 15 15 16 17 18 19 20 21 22 22 23 24 25 25 25 26 26 26 26
10 9 8 7 6 6 5 5 5 5 5 5 6 6 6 6 7 8 9 10 11 12 12 13 13 14 14 15 15 16 18 19 20 21 22 22 23 24 24 25 25 25 25 25
12 11 10 9 8 7 6 6 5 5 4 4 5 5 6 6 7 7 8 9 9 10 11 11 12 12 13 13 14 15 17 18 19 20 20 21 22 22 23 23 23 23 23 23
14 14 13 11 11 10 9 8 7 6 6 6 5 5 5 6 6 7 7 8 8 9 9 10 10 10 11 12 13 14 15 16 17 18 19 20 20 21 21 21 22 22 22 22
17 16 15 14 13 13 12 11 10 9 8 7 7 7 6 6 6 6 7 7 8 8 8 9 9 10 10 10 11 12 13 14 15 17 17 18 19 19 20 20 20 20 20 20
21 20 18 17 16 15 15 14 13 12 11 10 9 8 8 7 7 7 7 7 7 8 8 8 9 9 9 9 10 10 11 12 13 14 15 16 17 17 18 18 18 18 18 18
25 23 22 20 19 18 18 17 16 15 14 12 11 11 10 9 9 8 8 7 7 7 8 8 8 9 9 9 9 10 10 10 11 12 12 14 15 15 16 16 16 16 16 16
29 27 25 24 23 22 21 20 19 18 17 16 15 14 13 12 11 10 10 10 9 9 9 9 9 9 9 9 9 9 9 9 10 10 10 11 12 13 13 14 14 14 14 14
32 31 29 28 27 26 25 24 23 22 21 20 19 18 16 15 14 13 13 12 12 11 11 10 10 10 10 10 10 9 9 9 9 9 9 9 9 9 10 11 11 11 11 11
36 35 34 32 31 30 29 28 27 26 25 24 23 22 21 20 18 18 17 16 15 14 14 13 13 12 12 11 11 11 10 10 10 10 10 9 9 8 8 8 8 8 8 8
41 39 38 37 36 34 33 32 31 30 29 28 27 26 25 24 23 22 21 20 18 18 17 17 16 15 15 14 14 13 12 12 12 11 11 10 10 9 8 8 7 7 7 6
45 44 43 42 41 40 38 37 36 35 34 33 32 31 30 29 27 26 26 24 23 22 22 21 20 19 18 18 17 16 16 15 14 14 13 13 12 11 11 10 9 8 8 7
50 49 49 47 46 45 44 43 42 40 39 38 36 35 34 33 32 31 31 29 28 27 26 26 25 23 23 22 21 20 20 19 18 18 17 16 15 14 14 13 12 12 11 11
55 54 54 53 52 51 50 49 47 46 45 43 42 41 39 38 37 36 35 34 33 32 31 30 29 28 27 26 25 24 24 23 22 21 20 20 19 18 17 16 16 16 15 15
59 58 58 57 57 56 55 54 53 52 50 49 48 46 45 44 43 41 40 39 38 36 36 35 34 32 31 31 30 29 28 27 26 25 25 24 23 22 22 21 20 19 18 18
63 62 62 62 61 61 60 59 58 57 56 55 53 52 51 50 48 47 46 45 43 42 41 40 39 37 36 35 34 33 32 31 30 30 29 28 27 27 26 25 25 24 23 22

GEFSNGP_500_meanwind_048.txt.gz
Wind_Speed
17 17 17 16 16 16 15 14 13 13 14 14 15 16 17 18 19 20 20 21 21 21 22 22 22 22 21 20 19 19 18 16 15 13 11 9 7 6 4 5 6 8 10 12
17 17 17 16 16 15 15 14 13 13 13 14 15 16 17 18 19 20 20 21 21 22 22 22 22 22 22 21 20 20 19 18 16 14 13 11 10 9 7 6 6 7 8 10
16 16 15 16 16 15 15 15 14 14 14 14 14 15 16 17 18 19 19 20 21 21 21 21 21 21 21 21 20 20 20 19 18 17 17 15 13 12 10 9 8 8 8 9
15 15 15 14 14 14 14 14 14 13 13 13 13 14 14 16 17 18 18 19 20 20 20 20 20 20 20 20 20 20 20 19 19 19 18 17 16 15 14 12 11 9 8 7
14 14 14 13 12 12 12 12 12 12 12 12 13 13 14 14 16 17 17 17 18 18 19 19 19 19 19 19 19 20 20 19 19 19 19 19 18 17 17 15 14 11 9 7
12 13 13 13 12 11 11 11 11 11 11 11 12 13 13 14 14 15 16 16 16 17 17 18 18 19 19 19 20 20 20 20 20 20 20 20 20 20 19 18 17 15 11 9
9 10 11 11 11 11 11 11 10 10 10 10 11 12 12 13 14 14 14 15 15 15 16 17 17 18 18 19 20 20 20 20 20 20 21 21 21 21 21 20 19 17 14 10
7 8 8 9 9 9 9 10 10 9 9 9 9 10 11 12 13 13 14 14 14 15 15 16 16 17 17 18 19 19 20 20 20 21 21 22 22 22 21 21 21 19 16 13
5 6 6 7 7 7 8 8 9 9 8 8 8 9 10 11 12 12 13 13 14 14 14 15 15 16 17 17 18 19 20 20 20 21 22 22 22 23 22 21 21 21 19 16
7 6 6 6 6 6 6 6 7 8 8 8 8 8 9 10 11 11 12 12 13 13 13 14 14 15 16 16 18 19 19 20 20 21 22 23 23 23 22 22 22 21 20 19
9 8 7 7 7 6 6 6 6 7 7 8 8 8 8 9 10 10 11 11 11 12 12 13 13 13 14 15 16 18 19 20 20 21 21 22 23 23 22 22 22 22 21 20
12 12 11 10 9 8 8 7 7 7 7 7 8 8 8 8 9 9 10 10 10 10 11 11 12 13 13 14 15 16 18 19 19 20 21 22 22 22 22 22 22 21 21 21
15 15 14 13 12 11 11 10 9 9 9 8 8 8 8 8 8 9 9 9 9 9 10 10 11 11 12 13 14 15 16 17 18 19 20 20 21 21 21 22 21 21 21 21
18 17 16 16 15 14 14 13 12 11 11 10 10 9 9 9 8 8 9 9 9 9 9 9 10 10 11 12 12 13 15 16 17 18 18 19 20 20 20 20 21 21 20 20
21 20 19 18 18 17 17 16 15 14 13 12 12 11 11 10 10 9 9 9 9 9 9 9 9 9 10 10 11 12 13 14 15 16 17 18 18 19 19 19 19 20 20 20
24 22 22 21 21 20 20 19 19 18 17 15 14 13 13 12 11 10 10 9 9 8 8 9 9 9 9 9 10 10 11 12 12 13 15 16 16 17 17 17 18 18 18 18
28 27 26 25 24 23 23 22 21 21 20 19 18 16 15 14 13 12 11 10 10 9 9 9 9 9 9 9 9 9 9 10 11 11 12 13 14 14 15 15 15 16 16 16
33 32 31 29 28 27 26 25 25 24 23 22 21 20 19 17 16 14 13 12 12 11 10 10 9 9 8 8 8 9 9 9 9 10 10 10 11 12 12 12 13 13 13 13
38 37 35 34 32 31 29 28 28 27 26 25 24 23 22 21 19 18 17 15 14 13 13 12 11 10 10 9 9 9 8 8 8 8 9 9 9 9 9 10 10 10 10 10
44 42 40 39 37 35 33 32 32 30 29 28 27 26 25 24 23 21 20 19 17 16 15 14 14 13 12 11 11 10 9 9 9 8 8 8 8 8 7 7 7 7 7 7
50 48 46 44 42 40 39 37 36 34 33 32 30 30 29 28 26 25 24 22 21 19 18 17 16 15 14 13 13 12 12 11 10 10 9 9 8 8 7 7 6 6 5 4
55 53 51 49 47 45 44 42 41 39 37 35 34 33 32 31 30 28 27 26 24 23 22 21 20 19 18 17 15 15 14 13 13 12 12 11 10 10 9 8 8 7 7 6
59 58 56 54 52 50 49 47 46 44 42 40 39 38 36 35 33 32 31 30 28 26 25 24 24 23 22 21 19 18 17 16 16 15 15 15 14 13 12 12 11 11 10 9
61 61 60 59 57 55 54 52 50 49 47 46 44 43 41 39 37 36 35 34 32 30 29 29 28 26 25 25 24 23 22 21 20 19 18 18 17 17 16 16 15 15 14 14
65 64 63 63 62 60 58 56 55 53 52 50 49 47 46 44 42 41 39 38 36 34 34 33 32 30 29 28 27 26 26 25 24 23 23 22 21 20 20 19 19 19 19 18
66 66 66 66 66 65 63 61 60 58 57 56 54 53 51 49 47 46 44 42 41 40 38 37 36 35 33 33 31 31 30 29 28 28 27 27 26 25 25 24 23 23 23 23
66 67 68 69 69 69 68 66 65 63 62 61 59 58 56 54 53 51 50 48 46 45 44 42 41 40 38 37 36 35 34 34 33 32 32 32 31 31 30 29 29 28 28 27

GEFSNGP_500_meanwind_054.txt.gz
Wind_Speed
13 13 15 15 15 15 15 15 15 15 14 15 16 17 18 18 19 19 20 20 20 20 21 21 22 22 22 22 22 22 22 22 21 19 18 17 16 14 12 10 9 8 8 9
12 12 13 14 15 15 15 15 15 15 15 15 16 16 17 18 18 19 19 20 20 21 21 22 22 22 22 22 22 22 22 22 21 21 20 19 17 16 15 13 11 10 10 10
11 11 12 13 14 15 15 15 15 15 15 15 15 16 17 18 18 19 19 20 20 21 21 22 22 22 23 23 22 22 22 22 22 21 21 20 19 18 17 15 13 12 10 9
10 11 11 13 13 14 14 14 14 14 14 14 15 15 17 18 18 19 19 19 20 20 20 21 22 23 23 23 23 22 22 22 22 22 23 22 21 20 19 18 15 13 11 9
8 9 10 11 11 12 13 13 14 14 14 14 14 15 16 17 18 18 19 19 19 19 19 20 21 22 22 23 23 23 23 23 24 24 24 24 23 22 21 19 17 15 12 10
7 8 8 9 10 11 12 12 13 13 13 14 14 15 16 16 17 18 18 19 18 18 18 19 20 20 21 22 22 23 23 24 24 25 25 25 24 23 22 21 19 16 13 11
8 8 8 8 8 9 10 12 12 12 13 13 14 15 16 16 17 17 18 18 18 18 18 18 19 20 21 22 22 23 23 24 24 25 26 26 25 24 23 22 21 18 16 13
10 10 9 9 9 9 10 10 11 12 12 13 13 14 15 16 16 17 17 17 17 17 17 18 18 19 20 21 22 22 23 24 24 25 26 26 26 25 24 24 22 20 18 15
13 12 12 11 11 11 10 10 10 11 12 12 13 13 14 15 16 16 16 16 17 17 17 17 18 19 19 20 21 21 22 23 24 25 25 26 26 25 24 24 23 21 20 18
15 15 15 14 14 14 13 13 12 12 12 12 13 13 13 14 15 15 15 16 16 16 16 16 17 18 19 20 20 21 22 22 23 24 25 26 26 25 24 24 24 23 21 20
18 18 17 17 17 16 16 16 15 15 14 14 13 13 13 14 14 14 15 15 15 15 15 15 16 17 18 18 19 20 20 21 22 23 24 24 25 25 24 24 24 23 22 21
20 21 20 19 19 19 19 19 18 18 17 16 15 15 14 14 14 14 14 14 14 14 14 14 15 15 16 17 17 18 19 20 21 22 22 23 24 24 24 24 23 23 22 22
24 24 23 23 22 21 21 21 21 20 19 18 17 17 16 16 15 15 14 14 14 14 14 14 14 14 15 15 16 16 17 18 19 20 21 21 22 23 23 23 23 23 22 21
29 28 26 26 25 25 24 24 23 23 22 21 20 19 18 18 17 16 16 15 14 14 13 13 13 13 13 14 14 15 15 15 16 17 18 19 19 20 21 21 22 22 22 22
34 33 31 29 29 29 28 27 26 26 25 24 22 21 21 20 19 18 17 16 15 15 14 13 13 12 12 12 12 13 13 14 14 15 16 16 17 17 18 19 19 20 20 20
37 37 36 34 33 33 32 31 30 29 28 26 25 24 23 22 21 20 19 18 17 16 15 14 14 13 12 12 11 11 12 12 12 12 13 13 14 14 15 15 16 17 17 18
41 41 40 40 38 37 36 35 34 33 32 30 29 28 26 25 24 23 22 21 20 18 17 16 15 14 13 12 12 11 11 11 10 10 10 11 11 12 12 12 12 13 14 15
46 46 46 45 44 42 41 40 39 38 36 35 34 32 30 28 27 26 25 24 22 21 20 19 18 16 15 14 13 12 11 11 10 9 9 9 9 9 9 9 9 9 10 10
51 51 51 50 50 48 47 45 44 43 41 40 39 36 34 33 31 30 29 27 25 24 24 22 21 20 18 17 16 14 13 12 11 10 9 8 8 7 7 7 7 7 6 6
54 55 56 56 55 54 53 51 50 48 47 45 44 41 39 37 36 35 33 30 28 28 27 26 24 23 21 20 19 17 16 15 13 12 11 10 9 8 8 7 6 5 5 4
55 56 58 59 60 60 59 57 56 54 52 50 49 47 44 42 41 39 37 34 31 31 31 29 27 26 25 24 22 20 19 18 17 15 14 13 12 11 10 9 8 7 7 6
56 57 58 60 62 63 64 63 62 60 58 56 54 52 50 48 46 44 42 39 37 36 34 32 31 30 29 28 26 24 23 22 20 19 18 17 16 15 14 13 12 11 10 10
59 59 59 60 61 63 65 67 67 66 64 62 60 58 56 54 52 50 47 44 43 41 39 36 35 34 33 32 30 29 27 26 24 23 22 21 20 19 18 17 16 15 14 14
62 62 62 62 62 63 64 66 68 69 69 67 65 63 61 59 57 55 53 50 48 46 43 41 39 38 37 36 34 33 32 30 29 28 27 26 24 23 22 21 20 20 19 18
65 66 66 66 65 64 64 64 66 69 71 71 70 68 66 64 62 60 58 56 54 51 49 47 45 43 42 40 39 37 36 35 34 32 31 30 29 28 27 25 24 24 23 22
67 68 68 68 68 67 65 64 64 65 68 71 72 71 70 68 67 65 63 61 59 57 54 52 50 49 47 45 44 42 41 40 38 37 36 34 33 32 31 30 29 28 27 27
68 68 68 68 68 68 67 66 64 64 66 68 70 72 72 72 70 69 68 66 64 62 60 58 56 54 52 51 49 48 46 44 43 41 40 39 38 36 35 35 34 33 32 32

GEFSNGP_500_meanwind_060.txt.gz
Wind_Speed
7 8 9 10 11 12 12 13 13 13 13 14 15 16 18 19 19 19 19 19 20 21 21 22 23 23 23 23 23 23 23 22 22 21 20 19 18 16 15 13 11 10 8 7
6 6 7 9 10 11 12 12 13 13 14 14 14 15 17 18 19 19 19 19 19 20 21 22 23 23 23 24 24 24 24 23 23 22 22 21 20 18 16 14 12 10 9 7
5 6 7 7 8 9 10 12 12 13 14 14 15 15 17 17 18 19 20 19 19 20 21 21 22 23 23 24 24 24 24 24 24 24 24 23 21 19 18 16 14 11 9 7
3 4 4 6 7 8 9 10 11 12 12 13 14 16 17 17 18 18 19 19 20 20 20 21 22 22 23 23 24 25 25 25 25 25 25 24 23 21 20 18 15 13 10 8
1 2 3 5 6 7 8 9 10 11 11 12 14 15 16 17 18 18 18 19 19 20 20 21 22 22 23 23 24 25 25 26 26 26 26 26 24 23 22 20 18 15 12 10
3 3 4 5 6 7 8 9 10 11 11 12 13 14 15 16 17 17 17 18 18 19 20 20 21 22 23 23 24 24 25 26 26 26 26 26 25 24 23 22 20 18 15 12
6 6 6 6 7 7 7 8 10 10 11 12 13 14 15 16 16 17 17 17 18 18 19 19 20 21 22 23 23 24 25 25 26 26 25 25 25 25 24 23 22 20 17 14
9 9 9 9 9 9 10 10 11 11 12 12 13 14 15 16 16 16 17 17 18 18 18 19 19 20 21 21 22 23 24 25 25 25 25 25 25 25 25 24 23 21 19 17
12 11 11 11 12 12 12 12 13 13 13 14 14 15 15 15 16 16 17 17 17 18 18 18 18 19 20 20 21 21 23 24 24 24 24 24 25 25 25 24 23 22 21 18
15 14 13 14 14 15 15 15 15 16 16 16 16 16 16 16 16 16 17 17 17 17 17 17 17 18 18 19 19 20 21 22 23 23 23 23 24 24 24 24 23 23 21 20
18 17 16 16 17 17 18 18 18 18 18 18 18 18 17 17 17 17 17 17 17 17 17 17 17 17 17 18 18 18 19 19 20 21 22 22 22 23 23 23 22 23 22 21
19 19 19 19 20 20 20 21 21 21 21 21 20 20 19 19 19 19 19 18 18 17 17 17 17 16 16 16 17 17 17 17 18 19 19 20 20 21 21 22 21 21 21 21
22 22 23 23 23 23 23 23 23 24 24 23 23 22 22 22 21 21 21 20 20 19 18 18 17 16 16 16 16 16 16 16 16 16 17 17 18 18 18 19 20 19 19 19
26 27 27 27 27 27 27 27 27 27 27 27 27 26 25 25 24 24 23 23 22 22 21 20 19 18 17 16 15 15 15 15 14 14 14 15 15 15 16 16 16 17 17 17
32 32 32 32 33 33 32 32 32 32 31 31 31 30 30 29 27 27 26 26 25 24 24 23 21 20 19 18 17 15 15 14 14 13 13 12 12 12 12 13 13 13 14 14
37 38 38 39 39 39 39 38 38 37 37 36 35 35 34 33 32 31 30 30 29 28 27 26 25 24 22 21 19 18 16 15 14 13 12 12 11 10 9 9 10 10 10 10
40 42 43 44 45 46 46 45 44 44 43 42 41 41 40 38 37 35 35 35 33 31 30 29 29 28 26 24 23 21 19 18 16 15 14 12 11 10 9 7 7 7 7 7
42 44 45 47 48 49 49 50 50 49 48 48 47 46 45 44 43 41 40 40 38 36 34 34 33 32 30 29 27 25 23 22 20 18 16 15 13 12 10 9 7 6 4 3
42 43 44 45 46 47 48 49 50 51 51 51 51 51 50 49 48 47 46 45 43 40 39 39 38 36 34 33 31 30 28 26 24 22 20 18 16 15 13 12 10 9 7 6
40 41 42 43 44 45 47 48 49 50 51 51 52 52 52 52 52 51 50 49 47 46 45 44 43 41 38 37 36 34 32 30 28 26 24 23 21 19 17 16 14 12 11 10
39 40 41 42 43 44 46 47 48 50 51 52 53 54 54 54 54 54 54 53 51 51 50 49 48 45 43 42 40 38 37 35 33 31 29 27 25 23 22 20 18 17 15 14
41 42 43 45 46 48 49 51 52 53 54 55 55 56 56 57 57 57 57 57 55 55 55 53 52 50 48 47 45 43 41 39 37 35 34 32 30 28 26 24 23 21 20 18
44 46 47 49 50 52 53 55 56 57 58 59 59 60 60 60 60 60 59 60 59 58 58 57 56 55 53 52 50 48 45 43 41 40 38 36 35 33 31 29 27 26 24 22
48 50 52 54 55 57 58 60 61 62 63 64 64 65 64 64 63 64 63 62 61 61 61 60 60 59 58 57 55 53 50 48 46 44 43 41 39 37 35 34 32 30 28 27
52 54 56 58 60 62 63 64 65 66 66 67 67 68 68 67 66 65 64 64 64 63 63 63 64 63 63 62 60 58 55 53 51 49 47 45 44 42 40 38 36 35 33 31
55 58 60 61 63 64 66 67 68 68 69 68 68 68 67 67 67 67 66 65 64 64 64 64 65 66 66 65 64 62 60 58 56 54 52 50 48 46 44 42 41 39 37 36
58 60 61 63 64 65 66 67 68 69 69 68 68 67 66 66 65 64 63 63 62 62 63 64 65 65 67 68 67 66 65 63 61 59 56 54 53 51 49 47 45 43 41 40

GEFSNGP_500_meanwind_066.txt.gz
Wind_Speed
4 3 3 3 4 5 6 7 8 9 10 11 13 14 16 17 18 19 20 20 21 22 22 23 24 25 25 26 27 27 27 27 26 26 26 25 23 21 20 19 18 16 13 11
2 2 2 3 4 5 6 7 8 9 10 12 13 14 15 17 18 19 20 21 21 22 22 23 23 24 25 26 27 27 27 27 27 27 27 26 25 23 21 20 18 16 13 11
2 1 0 2 3 4 6 7 8 9 10 11 13 14 15 17 18 19 20 20 21 22 22 23 23 24 25 26 26 27 28 28 28 28 27 27 26 25 23 21 19 17 15 12
3 2 2 3 4 5 6 7 8 9 10 11 13 14 15 17 18 19 19 20 20 21 22 23 23 24 24 25 26 27 28 28 28 28 28 28 27 26 25 23 21 19 17 14
6 5 5 5 6 6 8 9 9 10 11 12 13 15 15 17 17 18 19 19 20 20 21 22 23 23 24 25 26 27 28 28 28 28 28 29 28 27 26 24 23 21 19 15
9 9 9 9 9 9 10 11 11 12 13 14 14 15 16 17 17 18 19 20 20 21 21 21 22 23 23 24 25 26 27 28 28 28 28 28 28 27 26 26 24 23 20 17
12 12 12 12 12 13 13 14 14 15 15 16 16 17 17 18 18 19 19 20 21 21 21 21 22 22 23 23 24 25 26 27 28 28 28 28 28 27 27 27 26 24 21 18
14 14 14 14 14 15 16 16 17 17 18 18 18 19 19 19 20 20 20 21 21 21 22 22 22 23 23 23 24 24 25 26 27 27 28 28 28 27 27 27 26 25 23 20
16 16 16 16 17 17 18 18 19 19 20 20 21 21 21 22 22 22 22 22 22 22 22 23 23 23 23 23 24 24 24 25 25 26 26 27 27 27 26 26 26 25 23 21
18 18 18 19 20 20 21 21 21 21 21 22 22 23 23 24 24 24 24 24 24 24 24 24 24 24 24 24 24 24 24 25 25 25 25 26 26 25 25 25 25 24 23 21
20 20 20 21 22 23 23 24 24 23 23 23 24 24 25 25 25 25 26 26 25 25 25 26 25 25 25 25 25 24 24 24 24 24 24 24 24 24 24 24 23 23 21 20
20 21 22 23 24 24 25 25 25 26 26 26 26 26 27 27 28 28 28 28 28 28 27 27 27 27 27 26 25 25 25 24 24 24 24 23 23 23 22 22 21 21 19 18
23 23 24 25 26 27 27 28 28 29 29 30 30 30 30 31 31 31 31 31 31 30 30 30 29 29 29 28 27 26 26 25 25 24 24 23 23 22 21 20 19 18 17 16
27 27 28 29 30 31 32 32 33 33 34 34 34 34 34 34 34 35 35 34 34 34 34 33 32 32 32 31 29 28 28 27 26 25 24 23 23 22 21 20 18 17 16 14
31 32 33 34 34 35 36 36 37 38 38 38 38 37 37 37 37 37 37 37 37 36 36 36 35 35 35 34 32 31 30 29 28 27 26 25 23 22 21 20 18 17 15 13
36 37 37 38 38 39 40 40 40 40 40 40 40 39 39 39 38 38 38 38 38 38 38 38 38 38 38 37 36 34 32 31 30 29 28 26 25 24 23 21 19 17 15 13
39 40 41 41 42 43 43 43 42 42 41 40 40 40 39 39 39 39 39 39 39 39 39 39 39 39 40 39 39 37 36 34 33 32 30 29 28 26 25 23 21 19 17 15
42 43 43 44 44 44 44 43 43 42 41 41 40 40 40 39 39 39 40 40 41 41 41 41 41 41 41 41 41 40 39 38 36 35 33 32 31 29 28 26 24 22 20 18
44 45 45 45 45 44 43 43 42 41 41 41 40 40 41 41 41 41 42 42 42 42 43 44 44 44 44 44 44 43 43 42 40 39 37 36 34 33 31 30 28 26 24 22
46 46 45 44 43 42 41 41 41 41 41 41 41 41 42 43 44 44 45 45 46 45 45 45 46 47 47 47 48 47 47 46 45 43 42 40 39 37 36 34 32 30 29 27
44 43 41 40 40 40 40 40 40 40 41 41 42 43 44 45 46 47 47 48 50 50 51 51 50 50 50 50 50 50 50 50 49 48 47 45 44 42 40 39 37 35 33 31
40 39 38 38 38 38 38 39 39 40 41 42 43 44 46 47 49 50 52 53 53 54 55 55 55 55 54 54 53 53 53 53 53 52 52 50 49 47 45 43 42 40 38 36
37 37 37 37 37 37 38 39 39 40 42 44 45 47 49 50 52 53 54 56 57 58 58 58 58 58 58 57 57 56 56 57 56 56 56 55 54 53 51 49 47 45 43 41
36 36 36 36 36 37 38 39 41 42 44 46 48 49 51 53 55 57 58 59 60 61 61 61 62 61 61 60 59 59 59 59 59 60 60 60 59 58 56 54 52 50 48 46
34 34 35 36 37 38 39 41 42 44 46 48 50 52 54 56 58 59 60 61 62 63 63 64 64 63 63 62 61 60 60 60 61 62 62 62 62 62 61 59 57 55 52 50
35 35 36 37 38 39 40 42 44 46 48 50 52 55 57 58 60 61 62 63 64 64 65 65 64 64 63 62 61 59 58 58 59 61 63 64 64 64 64 63 62 59 57 54
36 37 37 38 39 40 42 44 45 47 50 51 53 55 57 59 60 61 62 63 64 64 64 64 64 63 62 60 58 57 55 55 56 58 60 62 63 64 65 64 64 63 61 58